GLOBALSTAR M075

Last updated on Sun Jun 21 2026 00:03:18 GMT+0000 (Coordinated Universal Time)

1 37192U 10054E 26171.30839313 -.00000106 00000+0 -13934-4 0 9991 2 37192 51.9926 140.6885 0000242 24.6357 118.4869 12.62267321722339
UTC large
Height (km)
Speed (km/s)
/
Latitude / Longitude
Inclination (degrees)
Orbital Period (minutes)
Azimuth
Elevation
Range (km)
Doppler Factor

Next 0 passes for location: London (51.5072 / 0.1276)

No passes found over London.
GLOBALSTAR M075